Wind_Speed
67 67 67 68 68 69 70 70 70 71 71 71 71 71 72 72 72 73 74 75 75 76 77 78 79 80 82 83 85 85 86 86 85 84 81 78 79 80 79 76 74 73 69 66 68 69 68 64 60 58 56 52 51 53 54 54 55 53 50 47 46 46 45 42 40 38 37 36 35 34 34 33 31 28 26 26 27 28 27 26 25 25 26 26 25
69 69 69 69 70 71 71 71 72 72 73 73 73 73 74 75 75 75 76 77 77 78 79 80 81 82 83 85 86 85 84 83 82 80 77 78 80 80 78 75 73 68 64 66 69 69 64 60 57 56 52 49 51 54 54 53 52 48 44 43 43 43 42 41 39 36 35 34 33 33 32 30 28 26 25 26 27 26 25 24 24 24 25 25 23
69 69 69 70 71 72 72 72 73 74 74 74 75 76 76 77 77 77 78 79 80 80 81 82 82 82 83 84 84 83 82 80 78 76 77 80 79 77 75 72 67 62 64 68 68 65 61 59 56 54 50 49 52 56 54 51 49 44 41 40 40 40 40 38 36 34 33 32 31 30 29 27 25 24 24 26 25 24 23 22 23 23 24 23 21
70 70 71 71 72 72 73 74 74 75 75 76 76 78 78 79 79 79 80 81 82 83 83 82 82 82 82 81 81 82 81 78 76 77 79 76 73 72 71 65 60 63 70 70 65 62 61 59 56 53 51 52 55 58 55 49 45 40 38 38 38 37 36 35 33 32 31 30 29 28 26 24 23 23 24 24 23 21 21 21 22 22 22 21 20
71 72 73 73 74 74 75 75 75 76 76 77 78 79 80 81 81 81 82 83 83 82 82 82 82 81 81 81 82 81 78 77 79 79 73 69 69 68 65 62 63 71 75 70 64 61 60 60 57 54 54 56 57 59 55 47 42 37 35 35 34 33 33 31 30 30 29 28 27 25 23 22 22 23 23 23 21 20 20 21 21 21 21 20 19
73 73 74 74 75 75 76 76 77 77 78 79 80 81 82 82 82 82 82 82 81 81 82 82 82 81 81 81 80 77 77 78 78 75 70 69 69 66 65 68 72 76 75 69 64 60 59 59 57 55 56 58 57 57 53 45 39 34 32 32 31 31 30 28 27 27 27 26 24 22 21 21 22 23 22 21 21 20 20 20 20 20 20 20 19
75 75 75 76 77 77 77 78 78 78 79 81 82 82 82 81 81 82 82 81 81 81 81 82 81 80 80 79 76 76 76 76 75 76 76 75 73 70 72 74 76 76 74 69 64 58 56 57 57 56 56 56 56 54 48 41 36 31 29 30 30 29 28 25 25 25 25 24 21 19 20 21 22 21 21 21 20 20 20 20 20 20 20 19 18
77 77 78 78 78 78 79 79 80 81 81 81 82 81 81 80 81 83 82 81 81 80 80 81 81 81 81 78 75 75 76 78 80 81 78 76 74 73 75 75 74 73 69 66 61 54 53 54 55 55 53 54 52 48 42 37 33 29 27 28 29 28 26 24 23 24 23 21 19 19 20 21 20 19 20 20 20 20 20 20 20 20 20 20 18
79 79 79 80 80 80 80 80 80 80 80 80 81 80 81 81 82 82 79 79 79 79 81 82 83 84 81 77 74 76 80 82 81 77 74 74 73 73 72 71 70 67 64 60 56 51 49 50 52 52 51 52 47 42 38 34 32 29 27 28 29 27 25 23 22 22 20 18 18 19 20 19 18 18 19 19 20 21 21 21 21 20 21 20 18
80 80 81 81 81 80 80 80 79 79 80 80 80 80 82 83 81 79 78 80 82 83 84 85 84 81 77 75 76 80 81 78 75 73 73 73 72 71 70 68 66 63 60 57 53 49 47 47 48 49 51 49 42 38 36 32 32 30 27 28 28 27 24 22 21 19 18 18 19 18 17 16 16 17 18 19 21 22 22 22 21 21 21 20 18
80 80 81 80 80 81 80 79 79 79 79 80 81 83 83 83 83 83 85 87 86 86 85 84 82 78 77 78 79 78 76 73 71 70 70 71 70 69 68 66 64 61 59 55 51 48 47 46 47 49 50 46 40 38 35 32 31 29 27 26 26 26 23 20 19 18 18 18 17 14 13 13 14 16 18 19 21 22 22 23 22 21 21 20 18
78 79 80 80 80 80 79 79 78 78 80 83 85 86 86 87 88 90 90 87 84 84 83 80 79 79 79 79 76 73 71 70 67 67 69 69 68 68 68 66 63 60 57 53 50 47 46 47 47 48 47 43 40 37 33 31 29 27 24 24 24 24 21 20 19 18 17 16 14 13 13 13 14 16 18 20 21 22 22 23 23 22 21 20 19
80 82 82 82 81 82 82 81 81 83 85 87 87 87 87 87 87 86 85 83 82 81 79 78 78 77 76 74 71 68 66 64 64 66 67 67 68 68 66 63 60 56 53 50 47 46 45 45 45 44 43 41 39 35 31 29 27 25 22 21 22 20 18 18 17 17 17 15 15 15 16 15 15 17 18 19 21 22 22 23 23 22 21 20 19
82 81 81 79 79 79 80 83 85 86 86 84 82 80 78 79 80 78 78 79 79 78 76 75 74 72 72 70 66 63 62 62 64 64 65 67 67 64 60 57 55 52 49 47 45 45 44 42 41 40 40 40 37 33 29 27 26 24 21 19 18 16 16 17 17 18 18 18 18 19 19 18 18 18 19 19 20 22 22 23 22 21 20 20 20
82 79 78 77 76 77 82 86 85 83 79 75 71 69 69 71 73 74 75 75 74 73 73 72 69 69 69 67 65 63 64 63 63 63 65 65 61 57 55 53 52 48 46 45 44 43 41 39 39 39 39 38 36 32 29 27 25 24 19 16 17 18 20 21 21 21 22 22 22 23 23 23 22 21 20 19 20 22 22 22 22 21 21 21 21
82 80 79 79 80 82 84 83 79 74 68 66 66 66 67 69 73 76 76 72 71 70 70 69 67 68 68 65 63 62 61 59 60 60 59 57 54 51 51 50 48 45 43 43 43 41 40 40 40 41 40 38 34 32 30 28 27 24 19 17 19 21 24 25 24 24 25 26 26 27 28 28 27 25 23 21 20 21 22 22 23 23 23 22 21
82 81 81 81 81 79 73 70 70 66 63 66 71 73 72 73 75 76 72 70 72 72 71 70 68 68 65 59 55 53 53 53 53 51 49 48 47 47 47 46 45 42 40 41 43 43 43 43 42 40 40 37 34 33 32 31 30 27 23 22 23 24 25 26 26 26 26 28 29 30 31 31 30 28 25 22 21 22 22 23 24 25 25 23 22
83 82 82 80 78 75 71 70 70 66 68 74 75 74 72 72 71 70 71 75 78 76 73 70 67 64 57 51 48 48 48 48 46 44 43 44 45 45 45 47 46 41 38 42 45 45 45 43 40 38 36 35 34 34 35 34 33 31 29 28 28 29 29 28 28 28 28 29 30 31 32 32 32 30 27 24 22 22 23 24 25 26 26 24 23
85 82 82 81 78 76 74 75 76 75 75 72 66 64 67 70 72 75 79 81 77 70 66 63 59 55 52 50 50 50 49 46 43 43 44 44 45 44 45 48 47 41 42 47 49 45 42 40 38 36 34 34 34 34 35 35 35 33 32 32 32 33 33 31 29 29 29 29 30 31 32 33 33 32 30 26 23 23 24 25 25 26 26 24 23
88 84 80 77 73 70 68 68 68 68 67 61 59 66 75 78 79 79 76 70 62 59 61 58 53 52 52 53 53 52 49 45 43 44 45 44 42 41 44 47 46 44 47 51 50 46 43 41 38 35 34 34 35 34 34 35 36 36 36 36 36 37 36 34 30 29 30 30 31 32 33 33 34 34 32 29 26 24 25 25 25 26 26 24 24
91 87 84 80 77 75 74 71 66 64 65 64 70 80 85 83 82 77 66 58 56 62 67 61 55 54 55 55 52 49 48 45 44 45 44 40 39 41 46 48 47 48 51 51 49 48 45 42 38 36 36 35 35 35 35 36 37 39 40 40 40 39 38 34 29 28 30 32 33 34 35 35 35 35 34 32 29 26 25 25 26 27 25 24 24
90 89 88 86 86 84 83 82 79 79 81 79 82 86 82 79 79 75 69 67 69 72 70 63 60 57 58 55 49 49 49 48 47 45 43 40 42 47 52 52 51 51 51 51 50 49 45 41 38 37 36 36 35 35 36 38 39 41 42 42 42 41 39 34 28 27 29 33 34 34 36 37 36 36 34 33 32 29 27 26 28 27 25 23 23
90 90 89 88 87 85 83 83 83 85 86 82 80 79 75 74 74 73 72 72 71 69 65 62 59 55 55 52 49 49 47 48 47 45 44 46 50 53 55 52 50 50 50 50 50 48 45 40 36 35 36 36 35 36 39 41 42 44 44 44 43 40 37 32 28 28 30 34 34 33 36 37 38 38 35 34 33 32 29 28 29 28 26 24 23
89 89 88 87 86 84 82 82 82 82 81 78 76 76 75 74 75 72 67 62 62 64 62 60 55 49 50 49 47 45 45 46 47 47 48 49 52 54 51 48 47 47 47 48 48 47 44 36 33 36 37 37 37 39 41 42 41 41 39 38 37 35 33 31 30 30 32 35 34 33 35 37 39 37 35 35 35 34 32 31 31 30 28 25 24
86 86 85 84 83 82 79 78 77 77 76 75 75 77 77 74 71 65 59 58 61 62 59 53 49 46 44 43 43 46 47 47 47 49 49 48 49 49 46 44 47 46 45 46 48 49 43 35 36 40 40 39 39 40 39 36 33 31 29 28 28 29 29 31 32 33 36 38 37 36 37 38 39 37 37 38 38 37 35 35 34 31 29 27 25
82 82 81 80 80 78 77 75 72 72 72 73 74 74 72 67 63 58 57 61 62 58 52 46 45 44 41 41 44 46 47 46 47 48 47 47 46 45 44 44 46 44 43 47 50 51 46 40 40 40 39 39 39 37 33 30 29 27 26 26 25 26 27 30 34 37 40 42 41 40 40 41 42 42 41 40 41 41 39 38 36 32 30 29 27
78 78 77 77 76 74 73 71 68 67 67 68 67 64 62 63 62 61 63 65 61 53 51 50 46 41 38 40 42 42 43 44 46 48 46 44 43 43 42 42 44 43 46 50 51 50 46 40 39 38 38 38 37 34 29 27 28 27 25 25 25 24 24 27 31 35 40 44 44 43 42 42 43 43 43 43 44 43 41 40 35 30 30 30 29
76 75 74 73 72 71 69 67 65 63 61 63 64 61 63 67 67 66 65 64 58 53 53 52 45 37 35 36 38 39 43 46 46 48 46 44 42 41 41 41 44 45 49 52 49 46 42 37 36 37 37 37 36 31 26 27 28 26 24 24 25 24 24 26 28 30 35 41 45 46 47 46 46 45 45 46 45 44 41 36 31 29 29 31 31
73 72 71 69 68 67 66 64 62 62 61 63 66 66 67 66 64 61 59 57 56 55 56 53 47 42 38 38 40 42 47 48 44 43 43 43 43 41 41 42 44 48 49 48 46 42 37 33 34 35 35 36 34 30 27 30 31 27 22 23 25 26 25 27 30 31 33 37 41 45 48 48 48 47 46 45 44 42 37 31 28 29 29 30 29
70 69 68 66 65 64 63 62 61 60 60 60 61 61 60 59 57 55 53 53 53 55 56 57 56 52 47 45 48 48 47 45 43 41 41 41 41 42 43 44 47 49 45 41 40 36 32 32 33 34 34 34 33 32 32 34 33 26 21 22 24 23 24 26 28 29 30 34 37 40 43 45 46 45 45 44 42 39 32 28 28 28 28 28 27
68 66 65 63 62 61 60 58 56 54 54 54 53 52 53 53 52 49 49 50 52 52 54 57 61 61 56 51 50 48 44 43 44 45 45 42 40 43 47 50 48 44 39 38 39 36 32 32 32 33 34 32 33 33 32 34 31 24 22 22 22 22 24 25 26 26 27 30 33 36 37 38 38 37 36 35 33 30 28 27 27 27 27 26 27
66 64 63 62 61 58 55 54 53 51 51 51 51 49 49 48 45 44 45 47 49 50 51 52 55 57 54 47 44 44 43 43 43 44 45 44 44 47 50 50 43 36 38 42 44 40 33 31 33 35 34 33 35 32 30 31 27 23 23 22 21 22 24 25 25 25 25 27 29 30 30 30 29 27 25 25 25 25 26 27 27 27 27 28 29
64 63 62 61 59 57 55 54 53 51 50 49 49 48 47 46 45 46 47 47 47 47 48 48 47 46 45 43 43 45 45 44 41 40 41 43 45 44 41 41 37 34 40 43 42 37 31 32 35 36 36 36 34 30 28 28 25 24 24 22 19 20 22 23 22 21 23 26 27 26 27 27 26 23 21 21 23 23 23 25 27 28 29 29 30
62 61 59 58 57 56 55 54 52 50 48 47 47 47 47 49 50 48 45 44 44 45 45 46 45 41 40 42 42 45 45 42 39 38 40 44 44 39 34 36 37 38 42 41 37 33 32 36 38 38 39 36 29 27 29 28 27 27 26 22 19 21 23 21 20 22 23 25 26 26 26 28 27 25 23 23 22 21 22 24 28 30 31 30 30
61 60 58 57 56 55 54 53 51 49 48 47 46 46 45 45 44 40 39 40 40 40 41 42 41 38 39 39 38 40 41 40 39 41 43 44 45 42 37 38 40 42 41 36 29 29 35 39 38 39 39 33 27 29 32 32 31 29 26 22 20 23 25 23 22 23 25 25 27 27 27 28 28 28 28 26 24 22 22 24 26 29 29 30 30
60 59 58 58 56 54 52 49 48 47 45 45 43 39 34 36 39 39 40 42 40 36 36 37 36 36 40 43 43 44 45 44 42 39 37 37 40 41 41 43 43 40 35 31 29 33 37 38 37 37 35 31 31 35 37 37 33 29 27 23 22 24 24 24 24 22 25 26 26 27 28 29 29 29 29 29 28 25 24 26 27 29 29 30 31
58 57 57 55 54 53 50 47 46 44 41 39 37 31 29 36 43 43 40 38 38 36 34 36 39 39 42 46 51 53 55 55 50 43 37 35 37 40 42 42 40 38 36 35 35 37 37 36 34 33 32 33 35 38 40 38 32 29 28 24 24 25 22 24 25 23 25 27 28 28 28 29 30 31 31 29 28 25 27 30 31 31 32 33 34
52 53 54 50 49 50 49 47 44 39 37 37 34 32 36 42 46 44 38 34 36 35 34 36 39 41 44 47 52 56 59 61 58 54 48 40 38 39 38 36 36 38 38 37 36 36 35 34 33 33 35 36 38 41 41 36 30 28 26 24 24 25 23 25 26 25 26 27 29 30 28 28 29 31 31 27 23 23 27 30 31 31 33 35 35
45 46 47 43 43 45 44 43 38 36 37 37 35 36 39 43 46 44 40 38 40 40 39 41 43 46 49 51 53 56 59 61 60 60 57 52 47 40 34 34 37 37 36 34 33 34 34 33 34 35 35 38 43 44 40 34 30 27 25 26 26 26 25 25 24 24 25 25 27 28 29 28 28 30 31 28 24 25 29 31 32 32 33 35 36
39 39 38 40 41 41 41 38 33 32 35 35 36 39 40 41 43 43 43 45 48 49 49 50 51 55 57 57 55 54 56 58 58 58 57 55 51 42 37 36 36 36 34 31 32 34 35 35 35 36 39 44 46 42 36 33 29 26 26 27 27 27 27 25 24 24 23 23 24 26 28 29 29 30 31 31 28 27 30 34 34 33 35 36 36
36 36 37 41 41 39 38 36 33 32 33 33 34 37 40 40 41 45 49 51 52 52 54 56 57 58 59 60 58 54 53 52 51 50 49 47 44 41 40 37 35 37 36 33 34 37 38 39 40 42 44 44 39 34 33 31 28 28 29 28 26 27 28 27 26 24 22 23 25 27 27 28 30 31 32 33 33 31 32 33 34 34 34 35 36
38 41 41 39 37 36 34 32 32 31 30 29 30 35 40 44 47 51 56 58 57 54 53 55 57 58 57 57 56 53 50 47 44 41 37 35 35 35 37 36 35 38 38 35 36 38 40 41 41 42 41 38 32 30 31 30 28 30 30 29 27 27 29 29 27 25 25 26 27 28 27 27 29 32 33 33 36 38 38 36 35 34 32 32 36
42 43 40 35 33 33 32 29 26 25 28 33 38 42 45 49 52 54 55 56 55 52 50 50 51 52 52 51 51 49 46 43 39 34 31 31 31 32 34 34 35 38 41 40 40 41 39 38 39 38 36 35 33 33 32 28 27 29 30 30 29 29 30 30 28 26 27 28 29 28 26 26 26 29 34 35 36 38 41 41 39 36 33 34 38
42 38 34 32 30 27 26 27 27 29 34 37 41 43 44 45 46 45 45 46 47 46 45 45 44 42 41 41 42 42 40 37 34 31 32 33 32 33 34 36 37 40 43 43 41 40 37 36 37 36 34 35 35 34 30 26 26 29 31 31 30 30 31 32 32 29 28 29 29 28 26 26 26 27 31 36 39 38 39 41 42 41 37 37 40
41 38 36 33 30 24 22 24 27 31 35 37 39 39 39 40 40 40 40 40 41 40 39 37 34 30 28 28 29 30 31 31 32 33 35 35 36 37 37 37 37 37 38 40 38 36 36 36 36 35 35 34 33 32 29 26 26 29 32 32 31 30 31 33 33 31 31 30 28 29 29 28 28 27 28 33 39 42 41 41 42 43 42 42 43
40 40 40 38 32 27 25 26 28 30 33 36 39 39 38 37 38 37 36 36 35 34 34 33 31 28 27 25 23 23 24 27 30 33 35 34 34 34 33 32 32 33 35 38 39 38 37 37 36 35 34 32 30 30 29 28 28 31 34 34 32 31 31 33 33 32 33 31 29 30 30 29 28 27 27 29 34 41 44 44 44 45 45 45 46
41 41 41 39 36 31 28 29 30 29 27 28 34 37 38 38 37 36 35 35 33 31 31 32 32 31 31 30 28 24 23 25 30 33 35 35 34 32 32 33 34 35 37 38 40 39 38 38 36 33 31 30 29 30 31 32 33 35 36 35 33 31 31 32 33 33 33 30 29 29 29 28 28 27 27 27 30 36 42 45 45 46 46 47 47
43 43 40 37 37 35 34 32 31 31 27 28 35 38 38 39 38 38 36 36 35 33 30 29 30 32 33 34 33 30 28 26 28 30 32 35 35 36 36 36 36 37 37 38 39 39 38 36 33 30 30 30 31 33 35 37 37 37 36 35 34 33 32 33 33 33 32 30 29 30 30 29 28 27 26 26 27 31 36 40 43 44 45 46 48
43 43 41 37 36 36 36 35 35 38 39 39 42 42 41 40 40 40 39 39 37 35 32 30 28 29 33 36 35 34 32 30 29 28 29 30 31 32 33 34 35 36 36 37 36 36 35 33 32 32 32 33 35 37 39 39 38 37 36 35 34 34 34 34 34 34 32 31 31 31 31 30 29 27 25 24 25 28 32 37 41 42 43 44 47
44 45 45 43 41 39 38 37 38 41 44 44 45 44 43 42 43 43 41 40 38 36 35 33 31 28 30 35 36 34 32 31 31 31 31 31 31 31 32 34 35 36 37 36 36 36 35 36 36 37 37 38 39 39 40 40 38 37 36 34 34 35 36 35 35 35 34 32 32 33 32 31 30 28 25 23 23 26 29 34 39 42 41 40 42
46 48 49 47 44 43 42 41 40 39 37 37 39 42 43 42 43 43 41 40 39 38 37 36 34 31 29 31 34 35 34 33 33 33 33 33 33 34 35 36 37 37 38 38 39 40 40 41 40 40 40 39 39 40 40 39 37 37 36 35 35 36 37 36 36 36 35 34 33 34 33 32 31 29 26 24 22 23 25 29 35 41 44 44 42
Wind_Direction
287 288 289 290 290 291 291 292 293 293 294 294 295 297 297 297 298 298 299 299 300 301 301 301 301 301 302 302 302 303 304 305 305 306 306 306 307 307 306 306 307 308 308 307 307 307 307 307 308 308 308 308 310 310 307 305 303 300 298 295 292 290 291 291 291 290 287 285 282 281 281 280 279 277 276 277 281 284 286 285 283 284 286 288 287
287 288 289 289 289 290 290 291 292 293 293 294 295 296 296 297 297 297 298 299 299 300 300 300 301 301 302 302 302 304 304 304 305 305 306 306 307 307 306 306 306 306 306 308 309 307 307 308 309 309 307 308 313 314 309 306 304 300 297 293 291 291 291 290 289 287 284 281 279 279 279 278 277 274 275 279 284 286 284 282 281 284 287 287 286
286 287 288 288 288 289 290 290 291 292 293 294 295 295 295 296 296 297 297 298 299 299 299 300 300 302 302 302 303 304 304 304 304 305 306 307 307 307 306 305 305 305 306 309 309 306 306 307 308 308 306 307 312 317 313 306 304 299 296 293 291 291 290 289 287 284 281 278 277 277 277 276 274 274 278 283 286 285 282 281 282 285 286 286 285
285 286 287 287 288 288 289 290 291 292 292 293 294 294 294 295 296 296 297 298 299 298 298 299 300 302 302 303 304 303 303 303 303 305 307 307 307 307 305 305 304 305 308 309 308 304 303 305 307 307 305 306 309 315 314 306 303 298 295 293 292 292 289 288 285 282 279 277 276 275 274 272 272 277 283 286 286 283 282 281 282 284 284 284 285
284 285 286 286 287 288 288 289 290 291 292 292 293 293 294 295 296 296 297 298 298 298 298 299 301 301 302 303 303 302 302 303 304 306 307 308 308 307 305 304 304 305 308 308 307 302 301 303 304 305 305 306 308 312 312 305 302 298 295 294 292 291 288 287 284 281 278 276 274 273 271 270 275 281 286 286 283 282 282 282 282 283 282 283 284
283 284 285 285 286 287 288 289 290 291 291 292 292 293 294 295 296 296 297 297 297 298 299 300 301 301 301 302 302 301 302 303 305 306 307 309 308 306 304 304 303 305 308 308 307 302 299 301 302 304 306 307 309 311 310 303 300 297 296 295 292 290 287 286 282 280 277 274 272 271 269 272 279 284 286 283 282 283 284 283 282 281 281 282 284
283 283 284 284 285 286 287 288 289 290 291 292 293 293 295 295 295 296 296 296 296 297 299 300 301 302 302 301 301 301 303 304 306 307 307 307 305 303 302 302 303 305 308 309 307 302 297 299 301 304 307 309 310 310 308 303 299 297 297 295 293 290 286 284 280 278 275 273 271 270 271 276 282 283 283 282 282 285 286 285 282 281 281 283 283
282 282 282 283 284 286 287 288 290 291 291 292 293 293 294 294 295 296 295 295 296 297 299 300 301 302 301 300 300 302 304 305 305 306 306 304 302 301 300 301 303 306 309 309 306 301 297 297 300 305 308 310 311 310 308 302 298 296 296 296 294 290 286 282 279 276 274 272 270 269 274 279 281 281 281 283 284 286 287 285 283 281 282 283 281
281 281 282 283 285 286 287 288 290 291 291 291 292 293 293 294 296 296 295 295 297 297 299 300 301 301 299 298 300 302 305 304 304 305 305 303 302 302 302 302 304 307 309 310 306 302 300 299 302 305 308 311 310 311 310 303 298 295 294 295 294 290 285 281 278 275 270 268 268 271 276 279 280 280 282 284 287 288 287 285 283 281 283 284 279
280 281 282 284 285 287 288 288 289 290 290 290 291 292 294 294 295 295 294 295 296 297 298 299 299 299 298 299 301 303 304 304 304 305 303 302 302 302 303 304 305 306 307 309 306 303 303 302 304 306 308 310 309 312 311 303 297 292 291 293 292 289 284 279 275 270 266 266 269 273 276 279 280 281 284 287 289 289 287 285 283 281 283 284 278
280 281 283 285 286 286 287 288 288 288 287 288 291 292 293 293 292 292 292 294 295 295 297 297 297 297 298 300 301 302 303 303 304 304 302 302 302 303 304 303 303 303 304 306 304 304 304 304 306 307 308 308 308 311 310 304 296 289 289 291 291 288 282 275 270 265 265 267 268 272 275 278 281 284 286 287 287 288 287 284 283 281 281 282 278
280 281 283 284 285 286 286 286 286 286 286 289 291 291 290 290 291 291 292 293 294 294 296 297 297 297 298 299 301 302 301 301 302 302 302 302 302 303 303 302 301 301 302 303 302 303 304 306 308 307 306 306 307 308 307 303 294 287 287 290 292 288 279 272 268 267 266 266 265 267 269 274 280 283 286 286 285 285 285 283 282 280 278 279 275
279 281 282 283 284 285 285 285 285 286 287 289 291 290 290 290 291 291 291 291 293 294 295 296 297 298 299 300 301 301 300 299 300 302 301 301 302 302 302 302 302 301 303 303 301 302 304 307 308 306 304 304 305 304 303 300 292 285 285 292 294 288 282 278 274 270 265 263 265 266 265 270 277 282 285 285 283 282 282 282 281 279 277 277 273
280 281 283 284 285 284 284 285 286 288 289 290 292 291 291 291 290 290 291 292 294 295 296 297 298 299 301 301 301 300 299 299 299 299 300 302 303 302 302 303 303 304 304 303 301 302 304 307 308 308 305 302 301 299 298 295 290 283 283 292 292 289 290 292 287 276 268 264 266 268 267 270 275 282 287 284 281 279 279 280 279 278 279 277 271
279 281 282 283 283 284 285 287 288 289 290 290 291 291 291 290 290 292 294 295 295 297 298 298 299 300 301 300 300 299 299 299 297 297 300 301 300 300 302 304 305 305 304 302 301 302 304 305 307 310 308 302 297 293 292 291 288 282 281 286 285 288 292 294 292 281 274 269 268 270 270 272 275 281 287 285 279 276 277 278 278 280 281 278 268
278 278 279 280 281 284 286 286 287 288 287 287 288 289 289 289 290 294 295 295 296 297 298 298 300 301 302 302 301 300 299 299 298 298 299 298 298 300 304 306 307 307 306 306 305 304 305 307 308 310 310 302 294 288 287 287 284 282 281 284 287 292 293 293 290 282 275 271 270 271 273 275 277 280 285 287 280 273 274 276 278 281 282 277 264
276 276 276 279 281 283 283 283 286 284 282 285 288 288 287 287 290 292 293 295 296 296 296 297 299 301 304 306 305 304 303 303 302 301 299 298 300 304 306 307 308 309 311 313 311 307 305 308 310 310 310 302 293 287 285 285 282 280 280 285 292 296 298 296 289 280 273 270 270 271 274 275 277 278 281 285 281 272 270 274 277 280 281 274 259
274 275 276 277 278 279 279 281 284 282 282 286 286 284 286 288 290 291 293 295 295 294 295 296 297 301 306 308 305 304 304 304 304 304 303 303 305 306 306 307 308 307 309 314 315 310 306 308 311 311 309 301 296 291 286 284 282 280 280 284 290 294 298 298 290 280 272 268 267 268 272 274 275 277 278 283 283 273 267 272 277 279 280 270 254
272 273 275 277 276 277 278 280 280 279 281 283 282 283 287 289 289 291 293 293 292 292 295 298 299 300 302 301 299 300 301 301 302 304 306 306 306 304 304 306 306 303 306 313 316 314 310 311 312 312 308 301 297 294 289 285 282 281 282 284 288 292 296 296 291 280 271 265 264 265 269 272 274 275 277 281 285 278 268 269 275 279 280 267 251
271 272 274 275 274 275 277 280 279 277 277 278 280 284 287 288 287 290 291 288 287 292 297 298 298 297 297 298 297 298 298 298 299 303 306 306 303 301 302 304 302 301 307 313 314 314 314 314 313 311 310 305 300 296 294 288 283 283 285 287 288 291 293 292 287 277 271 267 263 265 267 271 273 275 277 279 284 284 272 266 272 280 278 263 250
272 272 271 271 272 273 274 276 275 274 275 276 280 283 284 284 285 286 286 284 285 292 294 292 292 294 295 297 297 298 297 294 295 300 304 304 299 298 301 302 300 302 308 311 311 312 313 313 312 311 312 309 303 298 296 291 287 285 286 288 289 290 291 289 280 270 270 269 266 267 268 271 273 275 278 280 282 285 278 267 270 279 274 261 254
274 273 273 272 272 273 273 274 273 274 276 277 279 281 281 281 283 282 281 282 284 287 288 287 289 292 292 293 294 296 296 293 293 296 299 298 296 296 298 298 298 301 306 308 308 310 311 312 311 311 311 310 305 298 295 292 290 289 289 289 290 290 289 285 275 266 269 270 269 269 270 272 273 274 278 281 281 283 280 270 272 276 268 261 260
274 274 274 274 274 274 274 274 275 275 277 278 278 278 278 279 281 282 282 282 282 283 285 286 289 290 289 290 293 294 294 293 292 293 293 293 294 294 295 295 296 300 305 308 308 308 310 311 308 308 309 308 304 298 294 293 292 290 290 290 290 288 285 281 273 266 267 268 268 269 271 272 273 274 277 279 281 282 279 274 274 273 264 260 263
274 274 275 275 275 275 275 275 275 276 278 278 277 275 275 277 278 279 281 281 279 280 283 285 286 284 285 289 292 291 290 291 291 291 291 291 291 292 293 294 296 302 307 310 309 308 309 308 301 302 305 306 305 302 298 296 294 292 291 290 288 285 280 277 274 272 271 269 268 270 272 272 272 273 275 278 281 281 279 276 276 272 262 256 262
274 275 275 276 276 276 276 276 276 277 278 277 275 275 276 277 276 275 276 275 276 279 282 282 279 277 281 286 287 286 286 288 289 291 291 290 289 288 289 293 298 303 308 311 310 307 306 300 295 300 304 306 308 305 303 299 296 295 294 294 291 285 277 270 269 271 272 271 271 272 272 272 272 272 274 278 280 280 278 277 277 272 260 252 258
274 274 275 276 276 277 276 276 276 277 276 276 276 277 278 277 273 270 270 272 275 278 278 274 271 272 276 278 281 284 286 287 289 290 289 288 285 282 285 293 300 305 308 310 309 306 303 298 296 301 304 307 309 306 302 298 298 298 298 299 295 289 279 267 262 263 267 269 270 271 269 269 270 271 273 275 277 278 277 277 277 270 259 251 256
274 274 275 275 276 276 276 277 277 276 275 276 277 276 274 272 269 268 268 270 273 273 270 266 265 270 274 277 279 280 281 285 289 287 285 284 281 281 286 296 302 305 307 307 306 304 302 299 297 300 305 308 307 303 300 300 301 300 301 303 300 294 286 276 268 263 263 265 266 267 267 266 266 268 269 272 274 275 276 277 272 266 258 251 254
273 274 275 275 275 276 276 276 276 274 273 273 272 270 269 270 269 269 268 269 269 265 263 261 259 262 270 276 278 277 279 284 287 284 281 279 279 283 289 299 304 306 308 308 306 304 300 297 298 302 306 307 304 299 299 306 309 303 301 305 306 302 297 292 285 276 270 266 264 264 265 266 267 267 269 271 272 273 276 272 265 263 257 249 253
273 274 274 275 276 276 275 275 273 272 270 268 268 268 270 271 270 270 270 270 266 260 257 257 256 257 265 272 276 280 283 283 283 279 275 273 276 283 290 298 304 306 307 305 303 300 296 296 300 303 305 304 301 296 296 305 311 308 301 304 308 304 299 297 291 286 281 273 267 264 264 266 267 269 270 270 270 272 272 266 263 262 252 247 252
273 273 274 275 276 275 275 274 273 272 270 268 268 269 270 270 271 271 270 268 266 264 259 256 257 260 264 269 274 279 280 276 273 271 269 271 276 283 291 297 302 303 302 301 299 295 293 297 300 301 302 303 301 296 296 302 309 310 307 309 311 303 297 295 290 286 283 277 271 265 264 265 266 268 269 269 269 269 265 262 264 256 244 244 247
273 273 274 274 273 273 274 274 273 271 270 269 269 269 270 271 272 271 269 267 267 265 261 258 258 261 265 267 270 273 271 266 265 266 268 274 280 287 293 295 298 298 296 300 300 294 292 295 295 296 299 302 305 301 300 305 308 313 315 312 308 299 293 292 290 287 282 278 274 268 265 265 266 267 268 268 265 260 258 261 259 247 240 242 243
273 273 273 272 271 272 272 272 271 270 270 269 268 268 269 270 270 270 270 269 268 265 263 262 260 263 263 261 264 266 262 261 262 264 268 275 283 289 291 291 292 293 294 300 298 291 290 290 290 292 295 301 309 308 306 309 307 312 313 305 300 296 295 294 291 290 287 283 278 271 267 263 263 264 265 261 253 253 257 257 250 243 240 241 244
273 273 272 271 271 270 269 270 270 270 271 271 269 267 267 269 270 270 271 269 268 266 264 262 261 262 257 253 258 261 258 260 265 269 272 278 283 287 289 290 290 291 295 298 293 286 285 287 288 290 292 299 308 311 312 309 304 308 310 308 305 300 304 301 289 290 292 287 278 269 264 260 256 252 252 251 249 252 252 248 245 243 241 242 245
273 272 272 271 270 269 268 268 269 270 271 271 270 268 268 273 274 273 271 269 267 266 264 262 260 257 251 251 255 255 255 259 268 274 276 278 278 281 287 289 288 288 292 291 286 283 283 286 287 287 290 295 303 312 315 312 306 308 312 314 309 299 302 297 284 288 290 283 276 268 262 259 255 243 236 241 246 248 243 241 244 244 244 246 248
273 273 272 271 270 270 270 269 269 270 270 271 271 271 274 277 274 268 268 269 268 266 263 260 258 250 241 244 247 248 253 260 268 272 273 273 273 275 281 284 284 285 285 281 277 280 282 285 285 285 289 291 296 308 315 316 309 308 311 309 298 293 296 291 285 287 286 282 275 271 265 258 254 244 236 236 240 244 244 243 244 245 247 250 252
274 274 273 272 272 272 273 272 271 272 271 272 273 275 274 271 267 265 268 270 266 261 258 257 255 248 237 237 242 246 254 260 263 266 271 276 276 277 281 282 281 277 274 271 270 273 277 281 283 284 285 285 292 302 311 316 310 306 309 302 290 290 293 290 290 286 283 280 272 268 264 257 251 243 238 238 239 246 254 254 250 250 250 251 253
276 275 275 274 273 273 274 273 272 274 274 273 274 268 255 254 262 267 267 264 258 254 254 255 255 253 245 241 243 247 252 256 257 258 266 276 281 281 282 280 273 266 267 268 265 267 271 276 281 281 281 283 292 301 310 314 307 303 306 299 289 287 284 282 285 284 281 278 272 267 262 256 248 239 237 240 243 249 258 261 259 257 257 257 257
278 277 278 277 274 274 274 272 273 272 271 270 267 258 249 253 261 264 260 255 255 254 253 253 254 255 254 251 250 250 251 252 253 254 259 268 276 277 275 271 263 259 263 263 261 263 266 272 279 282 283 286 295 305 310 310 304 301 302 298 290 283 277 274 276 280 279 277 274 272 266 258 248 240 236 237 245 250 255 259 261 261 262 263 263
279 281 283 280 275 274 273 273 273 266 260 261 261 256 253 254 256 255 251 252 257 260 258 257 257 258 261 261 258 254 253 252 252 253 255 262 267 267 266 263 259 259 261 259 259 261 264 272 279 283 284 289 299 305 305 304 302 301 302 301 295 289 282 277 276 281 284 282 278 274 271 263 250 242 236 233 237 247 255 257 256 258 261 262 264
278 283 280 275 273 273 272 270 269 260 252 256 259 256 253 251 249 246 248 256 264 268 267 265 264 263 265 267 265 259 256 255 255 254 255 259 260 259 261 262 258 258 258 257 259 263 268 275 278 280 283 291 299 301 301 301 301 302 305 304 300 295 290 284 283 287 289 290 287 281 276 270 258 246 237 232 234 241 252 257 257 256 256 258 260
271 272 265 267 270 270 271 269 264 258 255 261 262 258 254 250 245 247 255 266 272 273 273 272 270 268 268 269 269 265 260 259 258 257 257 258 258 256 257 259 259 259 259 259 262 267 273 276 278 281 286 293 297 297 299 300 300 305 307 305 303 299 294 289 287 290 292 293 291 287 280 274 265 255 243 234 231 235 242 254 261 260 257 257 257
259 258 257 264 270 271 272 270 266 263 261 260 255 253 253 251 250 254 260 265 269 271 273 273 271 270 269 268 268 266 263 262 260 259 258 257 256 254 252 253 255 259 261 263 266 271 276 278 280 284 289 294 293 293 296 296 301 306 307 308 308 302 297 293 289 291 295 295 292 287 281 275 266 258 252 241 233 232 235 243 254 258 259 258 255
259 258 262 268 272 275 273 266 258 251 247 245 243 246 252 255 256 257 258 260 263 265 268 270 270 270 269 268 267 266 264 262 260 258 255 252 251 250 249 249 251 259 266 268 270 274 275 276 280 285 289 290 288 289 291 292 299 303 304 308 308 302 299 295 292 294 296 296 293 287 281 277 268 257 253 248 242 235 232 235 242 248 254 257 255
259 258 263 265 265 264 262 257 242 229 233 241 245 249 254 257 257 256 257 260 262 264 265 266 267 267 269 268 266 264 261 257 254 250 249 250 252 253 254 256 258 263 268 269 269 270 271 274 279 283 286 286 287 288 287 289 295 299 302 305 302 298 298 295 293 294 295 296 292 285 279 278 275 265 254 248 245 243 237 234 238 240 243 250 254
257 257 257 256 252 242 237 244 239 231 236 244 249 253 255 256 257 259 260 262 264 265 264 264 264 267 272 273 269 264 257 251 247 247 249 253 256 258 258 259 259 259 262 265 266 267 270 274 278 280 282 284 284 284 284 288 294 299 303 302 297 294 296 293 289 290 293 293 286 280 278 277 276 272 262 251 244 244 243 240 239 239 239 244 248
258 256 253 249 245 236 231 239 243 242 247 252 254 255 255 256 259 261 262 264 266 267 265 264 266 270 275 278 277 271 261 252 248 249 253 256 257 255 255 254 253 252 256 261 265 269 272 275 278 280 282 283 280 279 283 288 293 298 301 299 296 294 294 289 285 288 290 287 281 277 276 275 273 270 266 257 247 243 244 244 243 243 243 246 247
250 248 247 244 240 234 230 237 245 250 256 258 255 253 256 261 261 260 262 265 267 270 270 268 268 271 274 276 277 275 267 257 252 251 251 252 252 252 255 259 260 260 261 266 271 275 277 277 278 279 280 280 278 278 283 289 293 296 297 295 292 293 292 285 283 286 285 281 277 274 273 273 271 270 266 258 250 245 244 245 245 244 245 247 249
244 242 244 243 240 235 230 233 241 245 246 246 249 253 258 261 261 258 260 263 264 267 269 270 269 268 269 272 274 274 271 265 259 255 253 253 253 256 260 264 267 268 270 272 275 277 278 278 279 278 277 277 277 280 285 289 292 293 294 292 289 293 293 285 282 281 280 278 275 272 273 273 269 267 265 259 253 248 246 247 249 248 248 249 250
244 242 242 240 238 237 234 233 234 235 235 240 248 254 256 258 259 259 260 262 261 261 263 266 268 265 262 263 267 269 270 269 266 264 263 263 263 264 266 269 271 273 275 275 275 276 276 276 276 276 276 278 279 282 285 288 289 290 291 289 289 294 295 287 280 277 275 275 275 274 274 273 269 264 261 258 253 248 246 246 248 251 252 253 254
242 239 237 234 234 236 237 238 237 236 238 244 248 249 250 253 258 260 262 262 261 261 261 262 264 263 258 255 258 261 262 264 265 267 268 269 270 270 270 272 274 275 276 276 276 277 277 277 278 278 279 280 280 282 285 285 287 288 289 288 288 294 294 287 279 276 276 275 275 274 272 271 269 263 258 256 253 249 245 242 243 245 245 249 253
238 234 231 232 234 236 237 239 240 241 243 246 247 247 248 252 256 259 261 261 262 264 263 262 261 262 260 256 255 255 256 258 260 263 266 267 267 267 270 273 274 275 276 278 279 280 280 280 280 279 279 279 279 282 283 283 285 286 286 286 288 293 293 286 279 277 277 277 275 273 271 270 269 264 258 255 254 253 250 246 243 241 240 240 243
Height
10902 10901 10901 10900 10898 10897 10895 10894 10893 10891 10890 10888 10887 10886 10884 10882 10881 10879 10878 10877 10877 10876 10875 10873 10871 10869 10867 10864 10861 10859 10857 10855 10853 10849 10847 10844 10841 10839 10836 10833 10831 10829 10827 10825 10822 10819 10816 10815 10813 10811 10809 10807 10805 10803 10801 10798 10795 10793 10792 10791 10790 10789 10788 10788 10787 10787 10786 10786 10785 10784 10784 10784 10784 10785 10785 10785 10785 10784 10783 10783 10782 10782 10782 10782 10782
10899 10897 10896 10895 10894 10892 10890 10889 10887 10886 10885 10883 10883 10881 10879 10877 10876 10875 10873 10872 10871 10870 10868 10867 10866 10865 10862 10860 10857 10854 10852 10850 10848 10845 10842 10839 10836 10834 10831 10829 10827 10824 10822 10821 10817 10814 10812 10811 10809 10807 10805 10803 10802 10800 10797 10794 10792 10789 10788 10786 10786 10785 10784 10784 10783 10783 10783 10782 10782 10781 10781 10781 10782 10782 10782 10782 10782 10782 10781 10780 10780 10780 10780 10780 10780
10895 10894 10892 10891 10889 10888 10886 10884 10883 10881 10880 10879 10878 10876 10874 10872 10871 10870 10869 10867 10865 10864 10862 10861 10860 10860 10858 10855 10852 10850 10847 10845 10843 10840 10837 10834 10832 10829 10827 10824 10822 10820 10818 10816 10813 10810 10808 10807 10806 10804 10802 10800 10798 10796 10794 10791 10788 10785 10784 10783 10782 10781 10780 10780 10779 10779 10779 10779 10779 10778 10778 10779 10779 10779 10780 10780 10780 10779 10779 10778 10778 10778 10778 10778 10778
10891 10889 10887 10886 10884 10883 10881 10880 10878 10877 10876 10874 10873 10870 10869 10867 10866 10865 10864 10862 10860 10857 10856 10855 10855 10854 10852 10850 10848 10845 10842 10840 10838 10836 10834 10830 10827 10825 10822 10820 10818 10816 10814 10812 10809 10806 10804 10803 10802 10801 10799 10797 10795 10792 10790 10787 10785 10782 10780 10779 10778 10778 10777 10776 10776 10776 10776 10776 10776 10776 10776 10776 10777 10777 10777 10777 10777 10777 10776 10776 10776 10776 10776 10776 10776
10887 10885 10883 10881 10879 10878 10876 10875 10874 10873 10871 10869 10868 10865 10863 10862 10861 10861 10859 10857 10854 10852 10850 10850 10850 10849 10847 10846 10843 10841 10838 10835 10832 10831 10830 10827 10824 10821 10818 10816 10813 10811 10809 10807 10805 10803 10801 10799 10798 10797 10795 10794 10791 10789 10786 10784 10781 10779 10778 10776 10775 10775 10774 10773 10772 10773 10773 10773 10773 10774 10774 10774 10774 10775 10775 10775 10775 10774 10774 10774 10774 10774 10774 10774 10774
10882 10881 10878 10876 10874 10873 10871 10870 10869 10868 10867 10865 10863 10860 10859 10857 10857 10856 10854 10851 10849 10847 10845 10844 10844 10843 10842 10841 10839 10836 10833 10830 10827 10826 10826 10824 10820 10817 10814 10811 10809 10806 10804 10802 10801 10799 10797 10795 10794 10793 10792 10790 10788 10785 10783 10781 10779 10777 10775 10773 10773 10772 10771 10770 10770 10770 10770 10771 10771 10772 10772 10772 10772 10772 10772 10772 10772 10772 10772 10772 10772 10772 10772 10772 10772
10877 10876 10873 10871 10869 10868 10867 10865 10865 10864 10862 10860 10857 10855 10854 10853 10852 10851 10848 10846 10844 10842 10840 10839 10838 10838 10837 10836 10834 10831 10829 10826 10823 10821 10821 10819 10816 10813 10809 10807 10804 10802 10799 10797 10796 10795 10793 10791 10790 10790 10789 10787 10784 10782 10779 10778 10776 10775 10773 10771 10770 10769 10768 10768 10767 10768 10768 10769 10769 10770 10770 10770 10770 10770 10770 10770 10770 10770 10770 10770 10770 10770 10770 10770 10771
10871 10870 10868 10866 10864 10863 10862 10861 10860 10859 10857 10854 10852 10850 10850 10848 10847 10845 10842 10841 10839 10838 10836 10834 10833 10833 10832 10831 10829 10827 10824 10822 10819 10817 10815 10813 10810 10807 10804 10802 10799 10797 10795 10793 10792 10791 10789 10788 10786 10786 10785 10784 10781 10779 10777 10775 10774 10773 10771 10769 10768 10767 10766 10765 10765 10766 10767 10767 10768 10768 10768 10768 10768 10768 10768 10768 10768 10768 10769 10768 10768 10768 10768 10769 10769
10865 10864 10862 10860 10860 10859 10858 10857 10856 10854 10851 10848 10847 10846 10844 10843 10841 10838 10836 10835 10834 10833 10831 10829 10829 10828 10826 10826 10824 10822 10820 10817 10815 10812 10810 10807 10805 10802 10799 10797 10795 10793 10791 10789 10788 10787 10786 10785 10783 10782 10782 10780 10778 10776 10774 10773 10772 10771 10769 10768 10766 10765 10764 10763 10764 10764 10765 10766 10766 10766 10766 10766 10765 10766 10766 10766 10766 10766 10767 10767 10767 10766 10767 10767 10767
10859 10858 10856 10855 10856 10856 10854 10853 10851 10848 10845 10842 10841 10841 10839 10837 10835 10833 10831 10830 10830 10828 10826 10824 10824 10823 10821 10821 10820 10818 10816 10813 10810 10808 10804 10801 10799 10797 10795 10793 10791 10789 10788 10787 10785 10784 10783 10782 10780 10779 10778 10777 10776 10774 10772 10772 10771 10769 10767 10766 10764 10763 10762 10762 10762 10763 10764 10764 10764 10764 10764 10764 10764 10764 10764 10764 10764 10764 10764 10765 10765 10765 10765 10765 10766
10854 10853 10851 10850 10852 10851 10850 10848 10845 10842 10838 10837 10837 10836 10834 10831 10829 10827 10826 10825 10824 10823 10821 10820 10819 10818 10816 10816 10815 10814 10811 10809 10806 10803 10799 10796 10794 10792 10791 10789 10787 10786 10784 10783 10782 10781 10780 10779 10778 10776 10775 10774 10773 10772 10770 10769 10768 10767 10766 10764 10763 10761 10761 10761 10761 10762 10762 10762 10762 10762 10762 10762 10762 10762 10762 10762 10762 10762 10762 10762 10763 10763 10763 10763 10764
10849 10847 10846 10846 10848 10846 10845 10842 10838 10836 10833 10833 10832 10830 10827 10825 10823 10821 10820 10819 10818 10817 10816 10815 10814 10812 10811 10811 10810 10809 10807 10805 10802 10799 10795 10792 10789 10788 10786 10784 10783 10782 10781 10780 10779 10778 10777 10776 10775 10773 10772 10771 10770 10769 10768 10767 10766 10765 10764 10763 10761 10760 10760 10760 10760 10760 10760 10760 10760 10760 10759 10760 10760 10760 10760 10760 10760 10759 10760 10760 10760 10761 10761 10761 10762
10845 10842 10841 10842 10842 10840 10838 10835 10832 10830 10829 10829 10826 10823 10821 10819 10817 10815 10814 10813 10812 10811 10811 10810 10809 10807 10807 10806 10806 10805 10802 10801 10798 10795 10791 10788 10785 10783 10781 10779 10778 10777 10777 10776 10775 10774 10774 10773 10772 10771 10769 10768 10767 10767 10766 10765 10764 10763 10762 10761 10760 10759 10759 10759 10759 10759 10759 10759 10758 10757 10758 10758 10758 10758 10758 10758 10757 10757 10758 10758 10758 10759 10759 10759 10760
10841 10838 10837 10837 10835 10833 10831 10827 10826 10826 10824 10822 10820 10817 10816 10814 10811 10810 10810 10808 10807 10806 10805 10804 10803 10802 10801 10801 10801 10799 10797 10796 10794 10790 10787 10783 10781 10778 10776 10775 10774 10773 10772 10772 10772 10771 10771 10771 10770 10768 10767 10765 10765 10764 10763 10763 10763 10762 10761 10760 10759 10759 10758 10759 10758 10758 10758 10758 10756 10755 10756 10756 10756 10756 10756 10756 10755 10755 10756 10756 10756 10757 10757 10757 10758
10837 10833 10832 10832 10828 10827 10824 10821 10822 10821 10819 10816 10814 10813 10812 10809 10806 10804 10805 10804 10802 10800 10799 10798 10798 10797 10796 10796 10796 10793 10792 10791 10789 10786 10783 10779 10776 10773 10771 10770 10770 10769 10768 10768 10768 10768 10768 10768 10767 10766 10764 10763 10763 10762 10762 10761 10761 10760 10759 10758 10758 10758 10758 10758 10757 10757 10756 10756 10755 10754 10754 10754 10754 10754 10754 10754 10753 10753 10754 10754 10754 10754 10755 10755 10756
10831 10829 10828 10828 10824 10822 10818 10816 10818 10816 10814 10812 10809 10809 10807 10805 10801 10798 10799 10799 10798 10796 10794 10793 10793 10791 10791 10791 10789 10787 10787 10786 10783 10781 10779 10775 10772 10769 10768 10767 10766 10765 10765 10764 10764 10765 10765 10765 10765 10764 10762 10761 10761 10760 10760 10759 10759 10758 10757 10757 10757 10757 10756 10756 10756 10755 10754 10754 10753 10752 10752 10752 10752 10752 10752 10752 10752 10751 10752 10752 10752 10752 10753 10753 10754
10824 10824 10824 10825 10822 10818 10814 10812 10812 10810 10809 10808 10805 10804 10802 10799 10797 10793 10793 10794 10793 10791 10790 10790 10789 10786 10785 10784 10782 10781 10781 10780 10778 10776 10774 10771 10768 10766 10764 10763 10763 10762 10762 10761 10761 10761 10762 10762 10762 10761 10759 10758 10758 10758 10757 10757 10757 10756 10755 10755 10755 10754 10754 10754 10754 10753 10752 10752 10751 10750 10749 10749 10749 10749 10750 10750 10750 10750 10749 10750 10750 10750 10750 10751 10751
10817 10818 10818 10820 10818 10812 10810 10808 10807 10805 10804 10804 10802 10799 10796 10794 10792 10789 10789 10790 10788 10787 10786 10785 10784 10781 10780 10779 10776 10775 10775 10774 10773 10771 10768 10766 10764 10762 10760 10759 10759 10759 10759 10759 10758 10758 10758 10759 10759 10759 10757 10756 10756 10755 10755 10754 10754 10754 10753 10753 10752 10751 10751 10751 10750 10750 10749 10749 10748 10747 10747 10746 10746 10746 10747 10747 10747 10747 10747 10747 10747 10747 10748 10748 10748
10811 10815 10815 10813 10812 10809 10805 10803 10801 10799 10798 10799 10798 10795 10791 10789 10787 10784 10785 10786 10784 10783 10782 10780 10779 10778 10777 10775 10772 10770 10770 10770 10769 10766 10764 10762 10760 10759 10757 10756 10756 10756 10756 10756 10755 10754 10754 10755 10756 10756 10755 10754 10753 10753 10752 10751 10751 10751 10750 10750 10749 10748 10748 10748 10747 10746 10746 10746 10744 10744 10744 10743 10743 10743 10743 10744 10745 10745 10745 10745 10745 10745 10745 10745 10746
10804 10810 10813 10807 10807 10808 10803 10800 10797 10792 10793 10795 10793 10790 10785 10783 10783 10782 10781 10780 10779 10779 10778 10777 10776 10775 10773 10771 10768 10766 10766 10767 10765 10763 10761 10759 10757 10755 10754 10754 10754 10753 10753 10752 10752 10751 10751 10751 10752 10753 10753 10752 10750 10750 10749 10748 10748 10747 10747 10746 10746 10745 10744 10744 10744 10743 10742 10742 10741 10741 10741 10740 10740 10740 10740 10741 10742 10742 10743 10743 10743 10743 10743 10743 10743
10795 10800 10804 10802 10802 10804 10801 10800 10795 10790 10791 10793 10790 10784 10780 10779 10779 10778 10778 10776 10775 10775 10774 10774 10773 10771 10769 10767 10765 10763 10762 10763 10762 10761 10759 10757 10755 10753 10753 10752 10751 10751 10750 10750 10750 10749 10749 10749 10749 10750 10750 10750 10748 10747 10746 10745 10745 10744 10743 10743 10742 10742 10741 10740 10741 10740 10739 10738 10738 10738 10738 10737 10737 10737 10738 10738 10738 10739 10740 10740 10741 10741 10741 10741 10741
10786 10788 10792 10794 10794 10797 10797 10796 10792 10787 10788 10791 10787 10780 10776 10776 10774 10773 10773 10771 10771 10770 10770 10770 10768 10767 10766 10764 10763 10760 10759 10758 10759 10759 10757 10755 10753 10751 10751 10750 10749 10748 10747 10747 10747 10747 10747 10746 10746 10746 10747 10747 10747 10745 10743 10742 10742 10740 10739 10738 10738 10737 10736 10736 10737 10738 10737 10734 10734 10735 10734 10734 10734 10733 10735 10735 10735 10735 10736 10737 10738 10739 10739 10738 10739
10778 10778 10781 10783 10784 10788 10792 10791 10787 10782 10782 10784 10781 10776 10774 10773 10771 10769 10768 10767 10767 10766 10766 10766 10765 10763 10762 10761 10759 10757 10755 10755 10756 10756 10755 10753 10750 10749 10748 10748 10746 10745 10745 10744 10744 10744 10744 10744 10743 10743 10744 10744 10745 10743 10741 10739 10738 10736 10735 10734 10733 10733 10732 10732 10733 10734 10733 10730 10730 10732 10731 10731 10731 10730 10731 10731 10732 10732 10733 10734 10734 10735 10736 10736 10736
10770 10770 10772 10774 10776 10780 10784 10786 10781 10777 10777 10776 10772 10770 10769 10769 10768 10766 10765 10763 10762 10763 10764 10764 10763 10762 10760 10757 10755 10752 10750 10752 10752 10751 10751 10749 10746 10745 10745 10745 10743 10743 10742 10742 10741 10741 10742 10742 10741 10741 10741 10741 10741 10740 10738 10735 10734 10732 10731 10730 10729 10728 10728 10729 10729 10730 10729 10727 10727 10729 10728 10728 10728 10727 10728 10728 10728 10729 10729 10730 10731 10732 10733 10733 10734
10764 10764 10764 10766 10767 10771 10776 10779 10777 10773 10772 10769 10764 10763 10764 10764 10763 10761 10761 10759 10759 10760 10761 10761 10761 10761 10759 10756 10751 10746 10746 10748 10748 10746 10746 10745 10743 10742 10742 10742 10740 10740 10741 10740 10739 10740 10740 10739 10739 10738 10738 10738 10737 10736 10734 10732 10730 10729 10728 10727 10725 10725 10725 10726 10727 10727 10725 10723 10725 10725 10725 10725 10725 10724 10724 10724 10725 10725 10726 10726 10727 10728 10729 10730 10732
10759 10757 10757 10759 10760 10762 10766 10770 10772 10770 10766 10762 10758 10757 10756 10756 10756 10756 10756 10754 10755 10756 10757 10758 10757 10757 10758 10755 10749 10743 10741 10744 10744 10742 10740 10740 10740 10739 10739 10739 10737 10737 10738 10738 10738 10738 10737 10736 10735 10735 10734 10734 10734 10733 10731 10729 10728 10727 10725 10724 10723 10722 10722 10723 10723 10724 10721 10720 10721 10722 10722 10722 10721 10721 10721 10721 10721 10721 10722 10723 10724 10725 10726 10727 10729
10753 10751 10751 10752 10754 10755 10757 10761 10765 10764 10760 10756 10752 10752 10751 10750 10751 10751 10751 10750 10751 10751 10752 10753 10754 10753 10753 10750 10747 10743 10739 10740 10741 10740 10738 10736 10736 10736 10737 10736 10734 10733 10734 10736 10736 10736 10734 10733 10732 10732 10731 10731 10730 10730 10729 10728 10726 10725 10723 10722 10721 10721 10720 10720 10720 10720 10718 10716 10717 10717 10717 10718 10717 10717 10717 10717 10717 10718 10719 10719 10720 10721 10722 10724 10726
10747 10746 10746 10746 10748 10749 10751 10754 10756 10756 10757 10753 10748 10747 10748 10747 10746 10746 10746 10745 10746 10746 10746 10748 10750 10749 10747 10745 10744 10741 10738 10738 10739 10738 10737 10734 10733 10734 10735 10734 10731 10729 10728 10730 10732 10732 10731 10730 10729 10729 10729 10729 10728 10728 10727 10726 10725 10723 10721 10720 10720 10719 10718 10718 10717 10716 10715 10712 10712 10712 10712 10712 10712 10712 10712 10712 10713 10714 10715 10716 10717 10718 10719 10721 10722
10741 10740 10740 10740 10743 10743 10744 10747 10748 10749 10751 10749 10744 10742 10742 10741 10741 10740 10740 10740 10739 10740 10741 10743 10744 10744 10742 10741 10739 10737 10736 10736 10736 10735 10735 10734 10732 10732 10732 10732 10731 10728 10727 10727 10728 10728 10728 10727 10727 10727 10727 10727 10726 10726 10725 10725 10724 10722 10720 10718 10718 10716 10715 10715 10713 10712 10711 10709 10708 10707 10707 10708 10707 10708 10708 10708 10709 10710 10712 10713 10714 10715 10716 10718 10719
10734 10734 10735 10736 10737 10736 10737 10739 10741 10741 10742 10741 10738 10737 10736 10735 10735 10735 10734 10733 10733 10734 10736 10738 10739 10738 10738 10736 10734 10733 10734 10734 10733 10733 10733 10732 10730 10729 10728 10729 10729 10729 10729 10727 10727 10727 10726 10726 10726 10726 10726 10725 10725 10724 10723 10722 10721 10720 10718 10717 10716 10714 10712 10712 10711 10710 10709 10706 10704 10703 10703 10703 10703 10703 10704 10704 10705 10707 10709 10710 10711 10712 10713 10715 10716
10728 10729 10731 10731 10731 10730 10731 10733 10734 10734 10734 10733 10732 10731 10730 10729 10730 10729 10728 10727 10728 10728 10730 10732 10733 10732 10732 10732 10730 10730 10731 10730 10729 10728 10728 10728 10727 10725 10725 10726 10727 10728 10728 10728 10727 10726 10725 10724 10724 10725 10725 10724 10724 10723 10721 10720 10718 10716 10715 10714 10714 10713 10712 10710 10708 10708 10706 10703 10701 10700 10699 10699 10699 10699 10700 10701 10702 10704 10705 10706 10707 10709 10710 10712 10713
10723 10724 10725 10725 10725 10725 10727 10728 10728 10728 10728 10729 10728 10726 10725 10724 10724 10724 10723 10722 10722 10723 10725 10727 10728 10727 10726 10727 10727 10727 10727 10726 10725 10724 10723 10723 10724 10723 10723 10723 10725 10726 10726 10727 10726 10724 10723 10723 10723 10723 10723 10723 10722 10721 10719 10717 10714 10712 10711 10710 10710 10710 10708 10706 10704 10702 10701 10700 10699 10697 10696 10696 10696 10697 10698 10699 10700 10701 10702 10703 10704 10706 10707 10709 10710
10717 10717 10718 10719 10719 10721 10722 10723 10723 10724 10724 10724 10724 10722 10721 10719 10718 10717 10717 10716 10717 10718 10719 10720 10722 10721 10720 10721 10722 10723 10722 10721 10721 10720 10719 10720 10721 10721 10721 10721 10723 10724 10723 10724 10723 10721 10721 10721 10722 10722 10721 10721 10720 10718 10717 10714 10711 10709 10707 10705 10705 10705 10703 10701 10699 10698 10698 10697 10696 10695 10693 10693 10694 10695 10696 10697 10698 10699 10699 10700 10701 10702 10704 10705 10706
10710 10711 10712 10713 10714 10715 10717 10718 10719 10720 10720 10720 10719 10718 10716 10713 10711 10709 10709 10709 10709 10711 10713 10713 10715 10716 10715 10716 10717 10718 10718 10717 10717 10717 10717 10718 10719 10720 10720 10720 10721 10722 10723 10723 10720 10717 10718 10719 10720 10720 10720 10719 10718 10716 10714 10712 10709 10707 10705 10702 10701 10701 10699 10697 10696 10696 10696 10695 10694 10693 10692 10691 10691 10693 10694 10695 10695 10696 10697 10698 10698 10699 10701 10702 10703
10705 10705 10706 10707 10708 10710 10711 10713 10715 10716 10715 10715 10715 10714 10711 10706 10703 10701 10700 10701 10703 10705 10706 10707 10709 10711 10711 10712 10712 10712 10713 10714 10714 10714 10715 10715 10716 10718 10718 10717 10717 10719 10721 10722 10720 10715 10714 10716 10718 10718 10717 10717 10715 10713 10711 10710 10707 10703 10701 10700 10698 10698 10697 10694 10694 10694 10693 10692 10692 10691 10691 10690 10690 10691 10691 10692 10692 10693 10694 10695 10696 10697 10698 10699 10699
10700 10700 10701 10701 10703 10705 10706 10708 10709 10710 10711 10710 10710 10709 10707 10700 10693 10693 10694 10695 10697 10699 10700 10701 10704 10705 10706 10707 10707 10708 10709 10710 10711 10710 10711 10711 10712 10714 10714 10713 10713 10715 10718 10719 10719 10714 10712 10714 10715 10715 10715 10714 10712 10710 10708 10707 10704 10700 10698 10697 10696 10696 10695 10692 10692 10692 10691 10690 10690 10690 10690 10689 10688 10689 10689 10690 10690 10691 10692 10692 10693 10693 10694 10695 10696
10695 10695 10696 10698 10699 10701 10702 10702 10704 10705 10705 10704 10703 10702 10700 10693 10686 10686 10689 10689 10690 10692 10694 10696 10698 10700 10701 10702 10703 10705 10705 10706 10707 10707 10709 10710 10710 10711 10710 10710 10709 10710 10714 10715 10714 10712 10711 10712 10713 10712 10711 10710 10709 10707 10705 10704 10702 10699 10696 10694 10692 10693 10693 10690 10689 10689 10688 10687 10686 10687 10688 10687 10687 10686 10686 10687 10689 10691 10690 10688 10689 10689 10690 10692 10692
10690 10689 10690 10693 10693 10695 10696 10696 10700 10701 10698 10697 10696 10694 10693 10689 10685 10684 10685 10685 10684 10685 10688 10690 10692 10693 10695 10697 10699 10700 10702 10703 10704 10705 10707 10709 10709 10709 10708 10708 10705 10704 10709 10711 10709 10709 10709 10710 10710 10709 10708 10707 10705 10704 10702 10701 10699 10697 10694 10691 10689 10689 10688 10686 10685 10685 10684 10684 10683 10683 10683 10684 10684 10684 10684 10686 10688 10688 10686 10684 10685 10686 10687 10687 10688
10685 10684 10683 10684 10684 10687 10688 10690 10695 10695 10692 10691 10690 10689 10688 10686 10683 10681 10680 10679 10679 10680 10682 10684 10686 10688 10689 10691 10693 10695 10696 10698 10701 10702 10704 10706 10708 10709 10708 10706 10701 10699 10704 10707 10705 10705 10705 10706 10707 10706 10705 10703 10701 10700 10699 10697 10696 10693 10690 10687 10684 10684 10683 10682 10681 10681 10680 10680 10679 10679 10679 10679 10680 10681 10682 10684 10686 10685 10681 10680 10681 10682 10683 10683 10684
10680 10679 10674 10673 10676 10679 10681 10685 10689 10689 10688 10688 10686 10684 10682 10680 10678 10676 10675 10674 10674 10674 10676 10678 10680 10682 10683 10684 10686 10688 10690 10692 10697 10699 10701 10703 10704 10707 10706 10703 10698 10695 10699 10703 10701 10701 10700 10702 10703 10702 10702 10701 10698 10696 10694 10693 10691 10688 10686 10683 10681 10680 10679 10677 10676 10676 10676 10675 10675 10675 10675 10675 10675 10677 10679 10681 10684 10683 10677 10675 10676 10678 10679 10679 10680
10673 10668 10665 10666 10671 10675 10677 10680 10684 10684 10684 10683 10682 10679 10675 10674 10673 10672 10670 10670 10669 10669 10670 10672 10674 10676 10677 10678 10679 10681 10684 10687 10691 10693 10696 10698 10699 10702 10703 10700 10695 10690 10693 10698 10697 10696 10696 10696 10698 10697 10697 10698 10696 10692 10689 10686 10685 10683 10681 10678 10677 10675 10674 10673 10672 10671 10671 10671 10671 10671 10671 10671 10671 10672 10674 10677 10679 10679 10676 10672 10671 10672 10674 10675 10675
10663 10658 10661 10667 10671 10673 10675 10678 10681 10680 10679 10679 10677 10672 10668 10668 10669 10668 10667 10666 10666 10666 10666 10667 10668 10670 10672 10673 10674 10675 10678 10681 10684 10687 10690 10691 10694 10696 10698 10698 10692 10684 10685 10692 10692 10691 10692 10691 10692 10692 10692 10693 10693 10691 10687 10684 10681 10677 10675 10674 10672 10671 10669 10668 10668 10667 10667 10667 10666 10666 10666 10667 10667 10667 10668 10671 10673 10674 10674 10671 10668 10668 10670 10671 10669
10658 10658 10664 10669 10670 10671 10672 10676 10677 10672 10669 10670 10669 10666 10664 10663 10664 10664 10664 10663 10663 10663 10664 10664 10664 10665 10667 10668 10669 10670 10672 10675 10678 10681 10684 10685 10688 10690 10691 10692 10689 10680 10679 10684 10687 10687 10687 10686 10686 10687 10687 10687 10687 10687 10686 10683 10680 10674 10669 10669 10668 10666 10665 10664 10663 10663 10663 10662 10662 10662 10662 10662 10663 10663 10663 10665 10667 10668 10669 10668 10666 10668 10669 10666 10663
10656 10660 10663 10664 10666 10667 10665 10666 10665 10660 10659 10662 10662 10661 10660 10658 10658 10658 10658 10658 10658 10659 10660 10661 10661 10662 10663 10663 10664 10665 10667 10669 10672 10675 10678 10679 10681 10683 10685 10686 10684 10679 10674 10676 10680 10683 10683 10682 10682 10682 10682 10681 10680 10680 10680 10680 10679 10673 10667 10666 10665 10662 10660 10660 10659 10659 10659 10658 10657 10657 10658 10658 10658 10659 10659 10659 10661 10662 10663 10664 10664 10665 10667 10663 10658
10654 10657 10657 10657 10659 10659 10658 10657 10656 10655 10656 10658 10657 10655 10654 10653 10654 10653 10654 10654 10653 10655 10655 10656 10657 10657 10658 10658 10659 10660 10662 10664 10667 10670 10672 10673 10674 10676 10678 10679 10678 10676 10671 10669 10672 10677 10678 10678 10677 10677 10677 10676 10674 10674 10673 10674 10674 10670 10664 10661 10660 10659 10657 10657 10655 10655 10655 10654 10654 10653 10654 10654 10654 10654 10654 10654 10655 10656 10657 10659 10659 10660 10661 10658 10654
10651 10651 10648 10650 10653 10655 10656 10654 10652 10652 10653 10653 10651 10650 10650 10649 10649 10649 10649 10649 10649 10649 10650 10651 10652 10652 10653 10653 10654 10655 10657 10660 10662 10665 10667 10668 10669 10670 10671 10672 10672 10672 10669 10665 10665 10669 10672 10672 10672 10672 10671 10670 10670 10668 10668 10669 10669 10666 10660 10656 10656 10655 10654 10653 10651 10650 10650 10650 10649 10649 10650 10650 10649 10649 10649 10649 10649 10650 10651 10652 10653 10653 10654 10653 10651
10642 10640 10639 10642 10646 10650 10654 10652 10649 10648 10647 10646 10644 10644 10644 10643 10643 10643 10643 10643 10644 10644 10645 10646 10646 10647 10647 10648 10650 10651 10653 10655 10657 10659 10662 10663 10664 10665 10666 10667 10667 10667 10666 10664 10661 10662 10664 10665 10666 10667 10666 10665 10664 10663 10662 10662 10662 10661 10657 10653 10651 10651 10651 10649 10648 10646 10645 10645 10645 10645 10645 10645 10645 10644 10644 10643 10644 10644 10645 10646 10647 10647 10648 10647 10647
10635 10633 10634 10636 10639 10644 10648 10649 10647 10645 10644 10641 10637 10637 10638 10637 10636 10637 10637 10638 10639 10639 10640 10641 10641 10642 10643 10643 10645 10646 10648 10651 10652 10654 10656 10658 10660 10660 10661 10662 10662 10662 10661 10661 10659 10659 10659 10658 10659 10661 10660 10660 10658 10657 10657 10656 10656 10655 10653 10649 10646 10646 10646 10645 10644 10642 10641 10641 10641 10641 10641 10641 10641 10640 10639 10638 10638 10639 10640 10640 10641 10641 10642 10642 10642
10631 10629 10630 10630 10632 10636 10640 10642 10642 10640 10638 10634 10631 10631 10631 10631 10630 10631 10632 10633 10634 10635 10636 10637 10637 10637 10638 10639 10640 10641 10643 10645 10647 10649 10651 10652 10653 10655 10655 10655 10655 10655 10655 10655 10655 10655 10654 10654 10654 10654 10655 10654 10653 10652 10651 10650 10649 10649 10647 10645 10642 10641 10641 10640 10640 10638 10637 10637 10637 10637 10637 10637 10637 10636 10635 10634 10634 10633 10634 10635 10635 10636 10636 10636 10636
10625 10623 10621 10621 10623 10627 10630 10633 10633 10632 10631 10628 10627 10626 10626 10625 10625 10626 10628 10629 10630 10632 10632 10634 10634 10634 10633 10634 10635 10637 10639 10640 10642 10644 10645 10646 10647 10648 10649 10649 10649 10649 10649 10649 10649 10649 10649 10649 10649 10649 10649 10648 10648 10646 10645 10644 10643 10642 10642 10640 10638 10637 10636 10636 10635 10633 10632 10633 10633 10633 10633 10633 10632 10632 10631 10631 10630 10629 10629 10629 10630 10631 10631 10631 10630
10614 10612 10612 10614 10616 10618 10622 10625 10626 10626 10625 10624 10622 10622 10622 10622 10621 10622 10624 10625 10626 10628 10629 10629 10630 10630 10630 10630 10632 10633 10634 10636 10638 10639 10640 10641 10642 10643 10644 10644 10644 10644 10644 10644 10643 10643 10643 10643 10643 10643 10643 10643 10642 10641 10640 10639 10638 10637 10637 10636 10635 10633 10632 10631 10630 10629 10628 10628 10628 10628 10628 10628 10628 10628 10627 10627 10626 10626 10625 10625 10625 10625 10626 10626 10626